| time (UTC) | temp F | wind direction | speed MPH | gust MPH | rain 1hr in | rain 24hr in | rain mn in | humidity % | barometer mb |
| 20260503223009 | 72 | 247 | 4.0 | 0.0 | 0.00 | 0.00 | 0.00 | 43 | 1013.0 |
| 20260503221509 | 73 | 211 | 5.0 | 0.0 | 0.00 | 0.00 | 0.00 | 43 | 1013.0 |
| 20260503220009 | 73 | 262 | 5.0 | 0.0 | 0.00 | 0.00 | 0.00 | 41 | 1013.0 |
| 20260503214508 | 73 | 157 | 4.0 | 0.0 | 0.00 | 0.00 | 0.00 | 39 | 1013.2 |
| 20260503213053 | 73 | 183 | 4.0 | 0.0 | 0.00 | 0.00 | 0.00 | 39 | 1013.4 |
| 20260503211554 | 73 | 201 | 5.0 | 0.0 | 0.00 | 0.00 | 0.00 | 38 | 1013.5 |
| 20260503210052 | 74 | 176 | 4.0 | 0.0 | 0.00 | 0.00 | 0.00 | 35 | 1013.9 |
| 20260503204557 | 73 | 183 | 4.0 | 0.0 | 0.00 | 0.00 | 0.00 | 36 | 1014.0 |
| 20260503203052 | 73 | 234 | 5.0 | 0.0 | 0.00 | 0.00 | 0.00 | 36 | 1014.1 |
| 20260503201550 | 74 | 252 | 5.0 | 0.0 | 0.00 | 0.00 | 0.00 | 40 | 1014.2 |
| 20260503200047 | 74 | 9 | 1.0 | 0.0 | 0.00 | 0.00 | 0.00 | 32 | 1014.5 |
| 20260503194548 | 74 | 58 | 3.0 | 0.0 | 0.00 | 0.00 | 0.00 | 32 | 1014.8 |
| 20260503193029 | 74 | 54 | 3.0 | 0.0 | 0.00 | 0.00 | 0.00 | 32 | 1015.0 |
| 20260503191528 | 74 | 30 | 1.0 | 0.0 | 0.00 | 0.00 | 0.00 | 31 | 1015.3 |
| 20260503190034 | 73 | 26 | 2.0 | 0.0 | 0.00 | 0.00 | 0.00 | 35 | 1015.6 |
| 20260503184511 | 72 | 42 | 3.0 | 0.0 | 0.00 | 0.00 | 0.00 | 33 | 1015.7 |
| 20260503183015 | 72 | 25 | 4.0 | 0.0 | 0.00 | 0.00 | 0.00 | 35 | 1016.0 |
| 20260503181510 | 72 | 66 | 3.0 | 0.0 | 0.00 | 0.00 | 0.00 | 33 | 1016.1 |
| 20260503180011 | 72 | 15 | 4.0 | 0.0 | 0.00 | 0.00 | 0.00 | 35 | 1016.3 |
| 20260503174506 | 71 | 51 | 6.0 | 0.0 | 0.00 | 0.00 | 0.00 | 34 | 1016.3 |
| 20260503173004 | 71 | 58 | 6.0 | 0.0 | 0.00 | 0.00 | 0.00 | 37 | 1016.4 |
| 20260503171502 | 70 | 16 | 6.0 | 0.0 | 0.00 | 0.00 | 0.00 | 34 | 1016.6 |
| 20260503081546 | 0 | 0.0 | 0.0 | 0.00 | 0.00 | 0.00 | 1014.8 | ||
| 20260503071524 | 158 | 15 | 7.0 | 0.0 | 0.00 | 0.00 | 0.00 | 100 | 1014.5 |
| 20260503054529 | 65 | 22 | 9.0 | 0.0 | 0.00 | 0.00 | 0.00 | 100 | 1014.2 |
| 20260503053020 | 63 | 13 | 7.0 | 0.0 | 0.00 | 0.00 | 0.00 | 100 | 1014.1 |
| 20260503051559 | 64 | 5 | 7.0 | 0.0 | 0.00 | 0.00 | 0.00 | 100 | 1014.1 |
| 20260503050052 | 63 | 9 | 5.0 | 0.0 | 0.00 | 0.00 | 0.00 | 32 | 1014.0 |
| 20260503044537 | 63 | 342 | 6.0 | 0.0 | 0.00 | 0.00 | 0.00 | 33 | 1014.0 |
| 20260503043032 | 63 | 345 | 5.0 | 0.0 | 0.00 | 0.00 | 0.00 | 34 | 1013.9 |
| 20260503041527 | 63 | 338 | 6.0 | 0.0 | 0.00 | 0.00 | 0.00 | 34 | 1013.5 |
| 20260503040026 | 63 | 344 | 6.0 | 0.0 | 0.00 | 0.00 | 0.00 | 34 | 1013.5 |
| 20260503034518 | 64 | 344 | 6.0 | 0.0 | 0.00 | 0.00 | 0.00 | 20 | 1013.4 |
| 20260503033024 | 64 | 355 | 8.0 | 0.0 | 0.00 | 0.00 | 0.00 | 34 | 1013.3 |
| 20260503031510 | 64 | 346 | 9.0 | 0.0 | 0.00 | 0.00 | 0.00 | 33 | 1013.2 |
| 20260503030005 | 65 | 5 | 10.0 | 0.0 | 0.00 | 0.00 | 0.00 | 33 | 1013.0 |
| 20260503024557 | 65 | 360 | 9.0 | 0.0 | 0.00 | 0.00 | 0.00 | 33 | 1013.0 |
| 20260503023046 | 65 | 11 | 11.0 | 0.0 | 0.00 | 0.00 | 0.00 | 34 | 1012.8 |
| 20260503021547 | 65 | 15 | 10.0 | 0.0 | 0.00 | 0.00 | 0.00 | 34 | 1012.7 |
| 20260503020039 | 65 | 360 | 11.0 | 0.0 | 0.00 | 0.00 | 0.00 | 34 | 1012.5 |
| 20260503014544 | 66 | 5 | 12.0 | 0.0 | 0.00 | 0.00 | 0.00 | 33 | 1012.3 |
| 20260503013033 | 66 | 355 | 12.0 | 0.0 | 0.00 | 0.00 | 0.00 | 28 | 1012.0 |
| 20260503011522 | 67 | 10 | 12.0 | 0.0 | 0.00 | 0.00 | 0.00 | 33 | 1011.8 |
| 20260503010018 | 67 | 355 | 12.0 | 0.0 | 0.00 | 0.00 | 0.00 | 33 | 1011.4 |
| 20260503004515 | 74 | 360 | 11.0 | 0.0 | 0.00 | 0.00 | 0.00 | 100 | 1011.1 |
| 20260503003059 | 69 | 360 | 13.0 | 0.0 | 0.00 | 0.00 | 0.00 | 100 | 1010.8 |
| 20260503001556 | 79 | 350 | 13.0 | 0.0 | 0.00 | 0.00 | 0.00 | 100 | 1010.4 |
| 20260503000049 | 73 | 355 | 14.0 | 0.0 | 0.00 | 0.00 | 0.00 | 100 | 1010.2 |
| 20260502234546 | 156 | 5 | 15.0 | 0.0 | 0.00 | 0.00 | 0.00 | 100 | 1009.8 |
| 20260502233044 | 85 | 15 | 15.0 | 0.0 | 0.00 | 0.00 | 0.00 | 100 | 1009.3 |
| 20260502231538 | 158 | 17 | 15.0 | 0.0 | 0.00 | 0.00 | 0.00 | 7 | 1009.3 |
| 20260502230031 | 72 | 5 | 12.0 | 0.0 | 0.00 | 0.00 | 0.00 | 100 | 1009.2 |
| 20260502224514 | 72 | 360 | 14.0 | 0.0 | 0.00 | 0.00 | 0.00 | 100 | 1009.2 |